Regional Weather Roundup
Issued by NWS

Home | Current Version | Previous Version | Text Only | Print | Product List | Glossary Off
Versions: 1 2 3 4 5 6 7 8 9 10 11 12 13 14 15 16 17 18 19 20 21 22 23 24 25 26 27

000
ASUS45 KCYS 182010
RWRWY

WYOMING REGIONAL WEATHER ROUNDUP
NATIONAL WEATHER SERVICE CHEYENNE WY
200 PM MDT FRI APR 18 2014

NOTE:  "FAIR" INDICATES FEW OR NO CLOUDS BELOW 12,000 FEET
WITH NO SIGNIFICANT WEATHER AND/OR OBSTRUCTIONS TO VISIBILITY.

WYZ001-182100-
YELLOWSTONE NATIONAL PARK

CITY           SKY/WX    TMP DP  RH WIND       PRES   REMARKS
LK YELLOWSTONE   N/A     36  30  79 W10G32    29.93R WCI  28
W YELLOWSTONE  NOT AVBL

$$
WYZ002>013-054>058-071-098>099-182100-
NORTHERN WYOMING

CITY           SKY/WX    TMP DP  RH WIND       PRES   REMARKS
JACKSON        CLOUDY    43  37  81 S8        29.95R
CODY           CLOUDY    61  37  41 W18       29.76R
GREYBULL       CLOUDY    64  31  28 CALM      29.69S
WORLAND        CLOUDY    70  31  23 NW12      29.67R
SHERIDAN         N/A     61  28  29 SW24G40     N/A
BUFFALO        CLOUDY    69  37  30 N16G22    29.67S
GILLETTE       CLOUDY    69  31  24 SW25G38   29.66F
HULETT         FAIR      68  36  30 S24G36    29.67
NEWCASTLE      FAIR      64  32  29 MISG      29.76

$$
WYZ014>020-022>026-101>103-182100-
CENTRAL WYOMING

CITY           SKY/WX    TMP DP  RH WIND       PRES   REMARKS
BIG PINEY      LGT RAIN  48  36  63 NW18G30   29.99R
PINEDALE       CLOUDY    43  34  70 W16       29.99R
DUBOIS         LGT RAIN  36  34  93 NW13G25   29.92R WCI  27
LANDER         PTSUNNY   70  25  18 SW36G46   29.76R
RIVERTON       PTSUNNY   68  22  17 SW30G43   29.76F
CASPER         CLOUDY    70  25  18 SW20G39   29.76F
DOUGLAS        CLOUDY    64  39  39 SE7       29.79F

$$
WYZ021-027>030-104>119-182100-
SOUTHERN WYOMING

CITY           SKY/WX    TMP DP  RH WIND       PRES   REMARKS
EVANSTON       PTSUNNY   60  25  26 W24G40    29.99R
KEMMERER       MOCLDY    52  36  54 NW21G29   30.00R
FORT BRIDGER   FAIR      66  20  17 W32G45    30.00R
ROCK SPRINGS   PTSUNNY   70  16  12 SW28G44   29.90R
DIXON          FAIR      71  26  18 SW21G29   29.98S
RAWLINS        PTSUNNY   70  20  15 SW35G52   29.90F
SARATOGA       FAIR      66  23  19 SW31G44   29.95F
LARAMIE        CLOUDY    68  24  19 S28G37    29.95F
CHEYENNE       PTSUNNY   71  28  20 SW14G25   29.93F
TORRINGTON     CLOUDY    77  32  19 S23G29    29.79F
PINE BLUFFS    FAIR      73  28  19 S17       29.92F

$$



USA.gov is the U.S. government's official web portal to all federal, state and local government web resources and services.